Location: Arbor Creek Middle School
(33.0349°N, 96.8733°W)
Time: 05:36:28
(UTC+00:00)

Daily predictions for brighter satellites

Satellite Brightness Start Highest point End
(mag) Time Altitude Azimuth Time Altitude Azimuth Time Altitude Azimuth
Cosmos 1741 Rocket 4.0 00:00:29 10° NNW 00:05:44 88° ENE 00:10:56 10° SSE
Cosmos 2266 Rocket 4.2 00:00:59 10° N 00:07:16 83° W 00:13:37 10° S
BREEZE-M DEB (TANK) 3.5 00:09:20 10° SSW 00:12:55 27° SE 00:14:50 11° E
CZ-4B R/B 3.7 00:07:43 10° S 00:13:20 71° WSW 00:18:54 10° NNW
Cosmos 1300 2.6 00:10:38 10° S 00:14:25 83° E 00:18:14 10° N
Cosmos 292 Rocket 4.1 00:09:56 10° SSW 00:14:41 72° WNW 00:19:29 10° NNE
Hubble Space Telescope 3.2 00:12:38 10° WSW 00:15:27 18° SSW 00:18:16 10° SSE
CZ-2D R/B 4.4 00:13:38 10° ESE 00:16:34 22° ENE 00:19:31 10° NNE
Cosmos 1315 Rocket 4.4 00:16:53 10° ESE 00:19:06 15° E 00:21:20 10° NE
OAO 1 Rocket 4.5 00:14:16 10° WSW 00:19:37 82° SSE 00:24:33 12° ENE
Aureole 3 Rocket 3.0 00:17:37 10° SSE 00:20:56 48° E 00:25:15 10° NNE
COSMO-SKYMED 1 2.5 00:18:36 10° NNE 00:22:55 66° E 00:27:13 10° S
Cosmos 1656 3.7 00:18:02 10° S 00:23:27 63° ESE 00:28:59 10° NNE
Atlas Centaur 2 3.5 00:16:06 10° WSW 00:24:10 57° SSE 00:31:38 13° E
SMAP 4.0 00:20:46 10° S 00:25:17 53° W 00:29:51 10° NNW
Okean O Rocket 2.7 00:22:14 10° S 00:26:28 50° W 00:30:42 10° NNW
Milstar 3 3.1 00:23:54 10° WSW 00:31:06 58° S 00:36:53 14° E
YAOGAN 1 3.7 00:28:01 10° ESE 00:31:22 22° ENE 00:34:44 10° NNE
Cosmos 1689 Rocket 1.9 00:29:38 10° N 00:32:31 88° WNW 00:35:23 10° SSW
Cosmos 1825 Rocket 4.0 00:29:26 10° NNW 00:33:50 67° W 00:38:11 10° S
Cosmos 2227 Rocket 3.2 00:29:54 10° N 00:34:29 25° ENE 00:38:11 13° ESE
H-2A R/B 3.3 00:32:37 10° ESE 00:36:30 21° ENE 00:40:27 10° NNE
Delta 2 Rocket 4.0 00:35:21 10° WNW 00:40:35 79° NNE 00:44:39 19° E
USA 281 3.9 00:34:48 10° S 00:41:13 59° WSW 00:47:41 10° NNW
S3M 4.2 00:38:37 10° SSE 00:44:24 46° E 00:50:12 10° NNE
Cosmos 1697 Rocket 2.9 00:39:39 10° S 00:45:00 48° ESE 00:50:22 10° NNE
Cosmos 1340 2.8 00:42:36 10° N 00:46:15 47° E 00:49:53 10° SSE
OAO 2 Rocket 3.2 00:44:14 10° WSW 00:49:14 88° N 00:52:06 25° ENE
Geosat 3.9 00:46:30 10° NNE 00:51:31 72° ESE 00:56:30 10° SSW
ASTRO E2 2.9 00:47:56 10° WSW 00:51:49 55° S 00:53:31 30° ESE
IRS-1C Rocket 4.1 00:48:35 10° SSE 00:53:50 90° SSE 00:59:08 10° NNW
Cosmos 1417 Rocket 4.4 00:49:29 10° S 00:55:41 77° E 01:01:59 10° N
Okean-O 2.5 00:54:18 10° SSE 00:58:40 62° ENE 01:03:03 10° N
Timation 2 Rocket 4.1 00:54:02 10° NNW 01:00:45 85° ENE 01:07:38 10° SSE
GPS 2-04 Rocket1 3.1 00:56:49 10° SW 01:00:47 50° SSE 01:01:59 37° ESE
CZ-4 R/B 4.4 00:56:48 10° SSE 01:00:56 89° WSW 01:05:07 10° NNW
Cosmos 1939 Rocket 3.3 00:57:53 10° S 01:01:51 61° W 01:05:46 10° NNW
Cosmos 1455 2.1 00:59:42 10° S 01:03:21 55° E 01:05:35 22° NNE
Helios 1A Rocket 2.8 01:01:27 10° SSE 01:05:34 89° E 01:09:42 10° NNW
SeaSat 1 4.3 01:08:27 15° NNE 01:08:27 15° NNE 01:10:00 10° NNE
Cosmos 1980 Rocket 2.6 01:02:13 10° S 01:07:21 37° ESE 01:08:36 33° ENE
SL-08 ROCKET BODY 4.4 01:01:46 10° N 01:07:50 64° E 01:13:58 10° SSE
Longmarch 3A Rocket 4.4 01:11:54 10° SSW 01:13:26 13° S 01:15:48 10° SSE
CSL-04 Debris 4.3 01:08:59 10° SSE 01:14:11 50° ENE 01:19:26 10° N
Cosmos 1553 Rocket 4.4 01:07:57 10° SSW 01:14:16 66° W 01:20:33 10° N
Cosmos 2297 Rocket 2.1 01:09:02 10° NNW 01:14:42 70° ENE 01:19:32 14° SSE
In-Cosmos 22 Rocket 4.2 01:12:02 10° N 01:17:25 79° W 01:22:55 10° S
Cosmos 2360 4.1 01:15:15 10° SSW 01:20:57 78° ESE 01:25:11 19° NNE
Centaur AC-119 3.4 01:16:56 10° WSW 01:21:34 28° SSW 01:21:56 27° S
CRYOSAT 2 4.2 01:18:39 10° N 01:23:32 82° E 01:28:23 10° S
CZ-4 R/B 1.7 01:20:32 10° S 01:24:26 64° W 01:28:17 10° NNW
SJ-11-01 4.1 01:26:46 63° E 01:26:49 64° ENE 01:31:26 10° N
OAO 3 Rocket 3.3 01:22:41 10° W 01:27:25 65° SSW 01:28:12 55° SSE
Meteor 2-15 Rocket 4.5 01:21:51 10° S 01:28:00 82° W 01:34:10 10° N
Cosmos 968 Rocket 3.3 01:23:21 10° NNW 01:28:33 72° ENE 01:29:54 49° SE
Cosmos 2058 3.1 01:27:59 10° N 01:31:21 59° N 01:31:21 59° N
Cosmos 2278 3.5 01:29:38 10° SSW 01:35:17 73° ESE 01:36:36 53° NE
CZ-2C R/B 3.5 01:32:37 10° S 01:38:24 70° WSW 01:44:08 10° NNW
MOS 1 Rocket 3.9 01:34:37 10° N 01:39:19 59° WNW 01:44:16 10° SSW
Cosmos 2219 3.7 01:38:12 10° NNW 01:43:51 60° WSW 01:49:27 10° S
Cosmos 1892 4.3 01:41:59 10° NNW 01:45:32 35° W 01:49:05 10° SSW
Cosmos 1486 Rocket 4.1 01:40:28 10° NNW 01:45:47 73° WSW 01:47:41 40° S
Cosmos 1745 Rocket 4.2 01:41:33 10° NNW 01:47:48 69° W 01:54:06 10° S
Cosmos 2082 4.3 01:47:28 10° NNW 01:51:26 44° N 01:51:26 44° N
ARGOS 3.7 01:59:27 49° NNW 01:59:27 49° NNW 02:03:22 10° NNW
Cosmos 44 Rocket 4.5 02:03:20 10° SW 02:07:32 38° WNW 02:07:32 38° WNW
Atlas Centaur 2 2.9 02:05:26 10° W 02:13:59 75° S 02:14:14 74° SSE
H-2A R/B 3.2 02:12:32 22° SSW 02:15:32 42° W 02:20:42 10° NNW
Cosmos 1709 Rocket 4.3 02:11:22 10° N 02:16:50 63° NW 02:16:50 63° NW
Cosmos 2227 Rocket 3.4 02:13:24 10° NW 02:18:33 38° WSW 02:20:08 31° SW
Cosmos 1980 Rocket 4.2 02:46:49 10° WSW 02:50:28 24° WNW 02:50:28 24° WNW
Milstar 3 4.4 03:07:38 10° W 03:10:27 27° WSW 03:10:27 27° WSW
CENTAUR R/B 4.0 09:58:11 26° N 09:58:11 26° N 10:01:06 10° NNE
Cosmos 2279 Rocket 4.1 10:10:29 10° N 10:16:40 73° E 10:22:50 10° SSE
Cosmos 1833 Rocket 2.6 10:36:01 74° NNW 10:36:01 74° NNW 10:41:21 10° NNE
Cosmos 292 Rocket 4.3 10:37:06 51° SSE 10:37:06 51° SSE 10:40:41 10° SSE
ATLAS 3B R/B 2.4 10:39:28 42° SSW 10:41:56 87° WNW 10:48:33 10° NNE
Cosmos 44 Rocket 3.8 10:46:18 29° NNW 10:48:52 63° ENE 10:54:01 10° SE
Meteor 1-24 Rocket 4.5 10:44:58 10° SSE 10:50:18 52° E 10:55:51 10° NNE
Lacrosse 5 rocket 3.6 10:53:33 12° N 10:53:33 12° N 10:53:54 10° N
ADEOS Rocket 2.6 10:49:10 10° S 10:54:40 72° WSW 11:00:11 10° NNW
Meteor 1-31 Rocket 3.8 10:53:13 10° NNE 10:57:01 46° E 11:00:48 10° S
Cosmos 2082 Rocket 2.1 10:51:44 12° SSW 10:57:02 88° ESE 11:02:40 10° NNE
Cosmos 2228 4.0 10:59:00 10° N 11:03:14 49° E 11:07:28 10° SSE
Cosmos 1656 3.6 10:59:36 21° NNW 11:03:31 73° WSW 11:09:08 10° SSE
USA 290 3.0 11:05:06 43° NNE 11:05:06 43° NNE 11:07:23 10° NNE
ISS -1.0 11:06:32 10° N 11:06:32 10° N 11:06:38 10° N
Meteor 1-16 Rocket 4.2 11:02:52 34° NW 11:04:45 49° W 11:09:53 10° SSW
Cosmos 1606 Rocket 4.2 11:06:21 10° N 11:10:46 57° E 11:15:09 10° SSE
ALOS 2.1 11:08:37 10° N 11:13:16 75° WNW 11:17:55 10° SSW
H-2A R/B 3.2 11:11:25 10° SSW 11:14:09 28° SW 11:14:09 28° SW
ERS-2 1.9 11:11:54 10° S 11:15:32 82° WSW 11:18:58 11° NNW
Cosmos 1092 Rocket 3.9 11:09:59 10° S 11:16:08 90° ENE 11:22:21 10° N
Meteor 2-5 Rocket 3.7 11:13:16 10° SSW 11:18:49 62° W 11:24:32 10° N
COSMOS 2406 4.3 11:20:20 23° NW 11:20:20 23° NW 11:24:20 10° N
Meteor 2-13 Rocket 4.3 11:15:01 10° SSW 11:21:08 70° W 11:27:16 10° N
Nadezhda 4 Rocket 4.1 11:15:22 10° SSW 11:21:11 47° W 11:27:04 10° N
Cosmos 2251 Rocket 3.5 11:16:51 10° SSW 11:22:10 63° WNW 11:27:29 10° N
CZ-4B R/B 3.7 11:18:34 10° N 11:22:41 76° WNW 11:26:36 10° SSW
Cosmos 1697 Rocket 2.6 11:21:06 10° NNW 11:26:47 88° WSW 11:32:27 10° SSE
CZ-3 R/B 3.2 11:08:39 20° WSW 11:27:24 71° S 11:34:28 10° E
Cosmos 1400 Rocket 3.7 11:24:15 10° N 11:28:03 49° E 11:31:49 10° SSE
Cosmos 220 Rocket 4.1 11:27:29 10° NNW 11:31:57 82° ENE 11:36:20 10° SSE
SAR-Lupe-1 4.3 11:30:52 10° SSE 11:34:24 72° ENE 11:37:58 10° N
Okean 1-7 Rocket 3.7 11:30:19 10° S 11:34:51 80° E 11:39:24 10° N
CZ-2C R/B 4.1 11:33:41 10° NNW 11:35:12 15° NW 11:35:12 15° NW
FENGYUN 3A 3.9 11:32:28 10° N 11:37:36 44° WNW 11:42:43 10° SW
Cosmos 2084 3.8 11:35:44 17° WSW 11:38:40 43° NW 11:42:50 10° NNE
deb Chang Zheng 4 3.9 11:35:11 10° N 11:39:08 39° WNW 11:43:06 10° SW
Cosmos 1627 Rocket 4.5 11:33:46 10° SSW 11:40:08 73° W 11:46:32 10° N
DELTA 2 R/B (1) 3.8 11:36:34 21° WNW 11:40:16 58° SSW 11:45:46 10° SE
SL-14 R/B 4.1 11:38:58 10° SW 11:42:22 28° WNW 11:45:51 10° NNW
Cosmos 2058 Rocket 3.6 11:39:08 10° N 11:43:36 64° E 11:48:00 10° SSE
Cosmos 1892 Rocket 3.7 11:42:17 10° SSW 11:46:28 48° W 11:50:41 10° N
CENTAUR R/B 4.4 11:46:09 10° NW 11:47:09 10° NNW 11:48:11 10° NNW
Cosmos 1300 2.7 11:45:13 10° NNW 11:48:57 54° W 11:52:40 10° S
Cosmos 1980 Rocket 2.4 11:43:38 10° NNW 11:49:14 73° ENE 11:54:49 10° SSE
H-2A R/B 4.3 11:45:29 10° NNE 11:49:28 36° E 11:53:17 10° SSE
Cosmos 1626 3.9 11:53:05 14° WNW 11:53:05 14° WNW 11:54:30 10° NW
SJ-12 4.1 11:49:19 10° N 11:53:17 48° WNW 11:57:12 10° SSW
Cosmos 2098 Rocket 4.5 11:47:09 10° S 11:53:39 62° E 11:58:56 10° NNE
